Location: Branche des Alpilles
(43.6087°N, 4.6976°E)
Time: 11:49:04
(UTC+00:00)

Cosmos 2154 Rocket - Pass Details

Date: 30 November 2020
Orbit: 966 x 997 km, 82.9° (Epoch: 26 January)

Event Time Altitude Azimuth Distance (km) Brightness Sun altitude
Rises 16:28:51 0° 350° (N) 3,718 6.9 -4.5°
Reaches altitude 10° 16:31:23 10° 350° (N) 2,768 6.2 -4.9°
Maximum altitude 16:37:45 80° 265° (W) 1,017 4.3 -6.0°
Drops below altitude 10° 16:44:05 10° 179° (S) 2,755 6.7 -7.0°
Sets 16:46:35 0° 178° (S) 3,700 7.3 -7.4°
